{"data":{"norad_id":69033,"intl_designator":"2026-101J","name":"STARLINK-37591","alt_names":[],"object_type":"PAYLOAD","status":"ACTIVE","operator":null,"country":"US","launch_date":"2026-05-06","launch_site_code":"AFWTR","launch_vehicle":null,"mission":null,"orbit_class":"UNKNOWN","rcs_meters":null,"size_class":null,"mass_kg":null,"dimensions":null,"purposes":["comms"],"wikipedia_slug":null,"has_3d_model":false,"image_url":null,"decayed_at":null,"tle_current":{"epoch":"2026-05-25T05:00:43.917696Z","epoch_age_seconds":63814,"freshness":"FRESH","line1":"1 69033U 26101J   26145.20884164  .00075720  00000+0  55978-3 0  9999","line2":"2 69033  97.2847 359.9685 0003452 202.6254 157.4858 15.72729979  3021","mean_motion":15.72729979,"eccentricity":0.0003452,"inclination_deg":97.2847,"raan_deg":359.9685,"arg_perigee_deg":202.6254,"mean_anomaly_deg":157.4858,"bstar":0.00055978,"rev_number":302,"period_min":91.560536088694,"perigee_km":348.77562612939,"apogee_km":353.4214903588,"semimajor_km":6729.2355582441,"source":"CELESTRAK","updated_at":"2026-05-25T13:38:22.080927Z"}}}